Location: �clusier
(49.9361°N, 2.7869°E)
Time: 07:53:48
(UTC+00:00)

Cosmos 1626 - Pass Details

Date: 16 June 2021
Orbit: 489 x 493 km, 82.5° (Epoch: 01 August)

Event Time Altitude Azimuth Distance (km) Brightness Sun altitude
Exits shadow 21:27:22 11° 176° (S) 1,593 4.1 -10.2°
Maximum altitude 21:30:47 61° 96° (E) 567 2.2 -10.5°
Drops below altitude 10° 21:34:27 10° 16° (NNE) 1,700 5.4 -10.8°
Sets 21:36:35 0° 13° (NNE) 2,588 6.5 -11.0°
